[[{"header":{"parameterUnit":"m.s-1","parameterCategory":1,"la1":30.2991,"la2":30.254,"lo1":-89.0895,"lo2":-89.0444,"dy":0.0017,"dx":0.0017,"nx":28,"ny":28,"refTime":"2024-03-10T03:00:00:Z","depth":0,"parameterNumber":2,"parameterNumberName":"U-component_of_WINDS"},"data":[0,0,0,0,0,0,0,0,0,0,0,0,0,0,0,0,0,0,0,0,0,0,0,0,0,0,0,0,0,0,0,0,0,0,0,0,0,0,0,0,0,0,0,0,0,0,0,0,0,0,0,0,0,0,0,0,0,0,0.7222,0.7222,0,0.7208,0.7208,0.7207,0.721,0.7211,0.7211,0.7211,0.7194,0.7194,0.7193,0,0,0,0,0,0,0,0,0,0,0,0,0,0.725,0.725,0.7222,0.7222,0.7222,0.7208,0.7208,0.7207,0.721,0.7211,0.7211,0.7211,0.7195,0.7194,0.7193,0,0,0,0,0,0,0,0,0,0,0,0,0,0.7237,0.7249,0.7222,0.7221,0.7221,0.7208,0.7208,0.7207,0.721,0.7211,0.7211,0.7211,0.7195,0.7194,0.7193,0.7178,0,0,0.719,0.7189,0,0,0,0,0,0,0,0,0.7238,0.7236,0.7222,0.7221,0.7221,0.7211,0.7211,0.7197,0.721,0.7214,0.7211,0.7212,0.7199,0.7198,0.7194,0.7177,0.7177,0.7189,0.7189,0.7188,0.7188,0,0,0,0,0,0,0,0.7239,0.7237,0.7216,0.7221,0.7221,0.7221,0.722,0.7209,0.7205,0.7214,0.7214,0.7213,0.7199,0.7195,0.7194,0.7176,0.7189,0.7189,0.7188,0.7187,0.7148,0.7147,0,0,0,0,0,0,0.724,0.7237,0.7217,0.7216,0.7231,0.7221,0.7219,0.7214,0.7205,0.7204,0.7212,0.7213,0.7197,0.7195,0.7193,0.7176,0.7188,0.7187,0.7187,0.7148,0.7148,0.7147,0,0,0,0,0,0,0.7241,0.7238,0.7217,0.7227,0.7224,0.722,0.7214,0.7213,0.721,0.7204,0.7203,0.7209,0.7197,0.7195,0.7182,0.7176,0.7187,0.7186,0.7149,0.7148,0.7147,0.7141,0,0,0,0,0,0,0.7241,0.7238,0.7233,0.7227,0.7224,0.7207,0.7214,0.7213,0.7208,0.7209,0.72,0.7199,0.7197,0.7184,0.7181,0.7174,0.7185,0.7149,0.7148,0.7148,0.7142,0.7141,0.7139,0,0,0,0,0,0.7242,0.7231,0.7233,0.723,0.7217,0.7206,0.7204,0.7203,0.7207,0.7202,0.7198,0.72,0.7177,0.7183,0.718,0.7172,0.715,0.7149,0.7148,0.7143,0.7141,0.7139,0,0,0,0,0,0,0.7236,0.723,0.7232,0.7218,0.7213,0.7207,0.72,0.7201,0.7194,0.7194,0.7192,0.7191,0.7178,0.7174,0.718,0.7158,0.7164,0.7162,0.7161,0.7159,0.7158,0.7159,0.7184,0,0,0,0,0,0.7233,0.7226,0.7221,0.7209,0.7207,0.7204,0.7199,0.7199,0.7193,0.719,0.7185,0.7179,0.7171,0.7165,0.7157,0.7142,0.714,0.7136,0.7134,0.7133,0.7131,0.7124,0.7122,0.7144,0.7144,0.7144,0,0,0.7227,0.7223,0.7218,0.7208,0.7204,0.7195,0.7202,0.7192,0.7186,0.7188,0.7176,0.7173,0.7166,0.7152,0.7146,0.7149,0.7125,0.7132,0.7131,0.713,0.7123,0.7121,0.7119,0.7143,0.7143,0.7144,0,0,0.7211,0.7207,0.7197,0.7193,0.7187,0.7186,0.7184,0.7178,0.7176,0.7164,0.7166,0.7158,0.7143,0.7138,0.7134,0.7118,0.7119,0.7115,0.7107,0.71,0.7098,0.7097,0.7091,0.7089,0.7114,0.7114,0.7114,0,0.7203,0.7192,0.7192,0.7183,0.7179,0.7182,0.7172,0.7168,0.7159,0.7155,0.7159,0.7141,0.7137,0.7122,0.7119,0.7115,0.7112,0.7116,0.7099,0.7097,0.7096,0.709,0.7088,0.7114,0.7114,0.7114,0.7114,0,0.7183,0.7175,0.7167,0.716,0.7155,0.7146,0.7144,0.7139,0.714,0.7138,0.7126,0.7121,0.7112,0.7109,0.7109,0.7095,0.7096,0.7099,0.7105,0.7093,0.7088,0.7086,0.7113,0.7113,0.7113,0.7113,0,0,0.7161,0.7155,0.7152,0.7149,0.7144,0.7137,0.7128,0.7121,0.7116,0.711,0.7103,0.7091,0.7094,0.7089,0.7089,0.7082,0.707,0.7086,0.7086,0.7083,0.7055,0.7052,0.705,0.7072,0.7071,0.7071,0.7055,0,0.7144,0.7129,0.713,0.7115,0.7108,0.7111,0.7103,0.7099,0.7097,0.709,0.7088,0.708,0.7085,0.7082,0.7076,0.7073,0.7064,0.7074,0.7064,0.7063,0.7065,0.7047,0.7044,0.7029,0.7053,0.7053,0.7053,0,0.7122,0.7117,0.7102,0.7098,0.7095,0.7088,0.7082,0.7076,0.7071,0.707,0.7065,0.7066,0.7057,0.7064,0.7051,0.7058,0.7054,0.7052,0.7051,0.7049,0.7057,0.7044,0.7025,0.7022,0.7049,0.705,0.705,0,0.7107,0.7097,0.7087,0.7084,0.7079,0.7075,0.7072,0.7068,0.7064,0.7058,0.7055,0.7048,0.7044,0.7039,0.7038,0.7043,0.7025,0.7032,0.7024,0.7024,0.7019,0.7019,0.6998,0.7018,0.7018,0.7018,0.7018,0,0.7088,0.7079,0.708,0.7074,0.7063,0.7065,0.7054,0.7053,0.7049,0.7042,0.7045,0.7038,0.7038,0.7031,0.7031,0.702,0.7019,0.7017,0.7017,0.7017,0.7017,0.7013,0.7014,0.7017,0.7017,0.7018,0.7018,0,0.707,0.707,0.7059,0.7056,0.7056,0.7048,0.7046,0.704,0.7039,0.703,0.7028,0.7027,0.7019,0.7018,0.7009,0.7009,0.6996,0.6997,0.6998,0.6998,0.699,0.6991,0.6966,0.6962,0.6984,0.6984,0.6984,0,0.7057,0.705,0.7047,0.7043,0.7041,0.7035,0.7031,0.7032,0.7028,0.7023,0.7017,0.701,0.7005,0.6992,0.699,0.6983,0.6984,0.6976,0.6983,0.6983,0.6984,0.6984,0.6983,0.6974,0.6974,0.6974,0.6973,0,0.7035,0.7036,0.703,0.7025,0.7021,0.7016,0.7013,0.7009,0.701,0.7005,0.6998,0.6994,0.6985,0.6978,0.6972,0.6969,0.6971,0.6971,0.6969,0.6968,0.6969,0.6968,0.6994,0.6972,0.6972,0.6972,0.6972,0.6972,0.7018,0.7013,0.701,0.7004,0.7002,0.6998,0.6993,0.6992,0.6986,0.698,0.6981,0.6973,0.697,0.6962,0.6959,0.6952,0.6955,0.6952,0.6951,0.695,0.6949,0.6971,0.6951,0.6951,0.6951,0.6951,0.6951,0,0.6996,0.6995,0.6989,0.6985,0.698,0.6984,0.698,0.6976,0.6969,0.6966,0.6961,0.6953,0.6947,0.6945,0.6939,0.6934,0.6935,0.6932,0.6932,0.6932,0.6947,0.695,0.6932,0.6932,0.6932,0.6932,0.6932,0.6932,0.6983,0.6974,0.6975,0.6965,0.6964,0.6957,0.6954,0.6951,0.6949,0.694,0.6935,0.6935,0.6932,0.6926,0.692,0.692,0.6917,0.6914,0.6914,0.6928,0.693,0.6932,0.6934,0.6914,0.6914,0.6899,0.6899,0.6898]},{"header":{"parameterUnit":"m.s-1","parameterCategory":1,"la1":30.2991,"la2":30.254,"lo1":-89.0895,"lo2":-89.0444,"dy":0.0017,"dx":0.0017,"nx":28,"ny":28,"refTime":"2024-03-10T03:00:00:Z","depth":0,"parameterNumber":3,"parameterNumberName":"V-component_of_WINDS"},"data":[0,0,0,0,0,0,0,0,0,0,0,0,0,0,0,0,0,0,0,0,0,0,0,0,0,0,0,0,0,0,0,0,0,0,0,0,0,0,0,0,0,0,0,0,0,0,0,0,0,0,0,0,0,0,0,0,0,0,-7.5595,-7.5597,0,-7.5762,-7.5764,-7.5766,-7.5689,-7.5685,-7.568,-7.5676,-7.5842,-7.585,-7.5858,0,0,0,0,0,0,0,0,0,0,0,0,0,-7.5205,-7.5213,-7.5595,-7.5597,-7.5599,-7.5762,-7.5764,-7.5766,-7.5689,-7.5684,-7.5679,-7.5675,-7.5839,-7.5849,-7.5859,0,0,0,0,0,0,0,0,0,0,0,0,0,-7.5374,-7.5215,-7.5595,-7.5581,-7.5581,-7.5761,-7.5764,-7.5767,-7.5691,-7.5684,-7.5678,-7.5672,-7.5836,-7.5848,-7.586,-7.6063,0,0,-7.5899,-7.5904,0,0,0,0,0,0,0,0,-7.5364,-7.5388,-7.5581,-7.5582,-7.5583,-7.5698,-7.5687,-7.5866,-7.5692,-7.5649,-7.5676,-7.5669,-7.5799,-7.5814,-7.5859,-7.607,-7.6077,-7.59,-7.5907,-7.5913,-7.5916,0,0,0,0,0,0,0,-7.5353,-7.538,-7.5661,-7.5583,-7.5585,-7.5564,-7.5581,-7.5721,-7.5757,-7.5652,-7.5647,-7.5668,-7.5798,-7.5847,-7.5862,-7.608,-7.5899,-7.591,-7.5918,-7.5923,-7.6465,-7.6472,0,0,0,0,0,0,-7.5342,-7.5371,-7.5656,-7.5666,-7.5456,-7.5577,-7.5596,-7.5667,-7.5755,-7.5763,-7.5673,-7.5664,-7.5829,-7.5848,-7.5868,-7.6111,-7.5912,-7.5924,-7.5931,-7.6458,-7.6467,-7.6474,0,0,0,0,0,0,-7.5334,-7.5368,-7.5649,-7.5517,-7.5551,-7.559,-7.5671,-7.5674,-7.5723,-7.5771,-7.5777,-7.5717,-7.5825,-7.585,-7.6015,-7.6115,-7.593,-7.5941,-7.645,-7.6461,-7.647,-7.6598,0,0,0,0,0,0,-7.5323,-7.5366,-7.5444,-7.552,-7.5559,-7.5796,-7.5677,-7.5682,-7.5745,-7.5734,-7.5814,-7.5821,-7.5822,-7.5997,-7.6028,-7.6129,-7.5951,-7.6441,-7.6455,-7.6467,-7.6585,-7.6611,-7.6634,0,0,0,0,0,-7.5309,-7.5472,-7.5448,-7.5483,-7.5658,-7.5801,-7.5824,-7.5823,-7.5754,-7.5832,-7.5863,-7.5818,-7.6099,-7.6014,-7.6048,-7.6155,-7.6435,-7.6451,-7.6466,-7.6574,-7.6606,-7.6633,0,0,0,0,0,0,-7.5405,-7.5482,-7.5456,-7.5649,-7.5719,-7.5788,-7.5887,-7.5857,-7.5948,-7.5934,-7.5928,-7.5946,-7.6117,-7.6152,-7.6056,-7.6355,-7.6256,-7.6279,-7.6326,-7.6357,-7.6381,-7.6369,-7.5961,0,0,0,0,0,-7.5449,-7.5561,-7.5621,-7.5784,-7.5822,-7.5849,-7.5911,-7.5905,-7.5977,-7.6006,-7.6049,-7.6119,-7.6223,-7.6292,-7.639,-7.6589,-7.6605,-7.6679,-7.6703,-7.6723,-7.6743,-7.6851,-7.6884,-7.6525,-7.6525,-7.6525,0,0,-7.554,-7.5596,-7.5666,-7.5805,-7.5859,-7.5974,-7.5874,-7.5999,-7.6084,-7.6024,-7.6183,-7.6217,-7.6295,-7.6478,-7.6561,-7.6512,-7.6846,-7.6743,-7.6759,-7.6768,-7.687,-7.6904,-7.6934,-7.6536,-7.6534,-7.6532,0,0,-7.5765,-7.5819,-7.5961,-7.6018,-7.6102,-7.6119,-7.6153,-7.6227,-7.6248,-7.6407,-7.6365,-7.6464,-7.6644,-7.6702,-7.6754,-7.7001,-7.6963,-7.7033,-7.7161,-7.7266,-7.7295,-7.732,-7.7408,-7.744,-7.7053,-7.7053,-7.7054,0,-7.5868,-7.604,-7.6038,-7.6168,-7.623,-7.6182,-7.6326,-7.638,-7.6491,-7.6535,-7.6479,-7.6704,-7.6753,-7.6949,-7.7009,-7.7053,-7.7092,-7.7025,-7.7291,-7.7316,-7.7339,-7.7424,-7.7457,-7.7061,-7.706,-7.706,-7.7059,0,-7.6162,-7.6282,-7.6387,-7.6498,-7.6571,-7.6707,-7.6724,-7.6799,-7.6786,-7.6808,-7.6971,-7.7028,-7.7138,-7.7183,-7.7171,-7.7378,-7.7345,-7.7291,-7.7192,-7.7382,-7.7461,-7.7493,-7.7073,-7.707,-7.7068,-7.7066,0,0,-7.6453,-7.6561,-7.6599,-7.6649,-7.6738,-7.683,-7.6963,-7.7072,-7.7136,-7.7214,-7.7325,-7.7478,-7.7429,-7.7488,-7.7482,-7.7574,-7.7767,-7.7508,-7.751,-7.7555,-7.7997,-7.8039,-7.8076,-7.7742,-7.7748,-7.7753,-7.7991,0,-7.6685,-7.692,-7.6922,-7.7138,-7.7249,-7.7206,-7.7321,-7.7388,-7.7412,-7.7508,-7.7533,-7.7643,-7.7569,-7.7605,-7.7694,-7.7725,-7.7855,-7.7707,-7.7844,-7.7849,-7.7827,-7.8117,-7.8161,-7.8383,-7.8022,-7.8027,-7.8031,0,-7.6987,-7.7077,-7.7305,-7.7378,-7.7425,-7.7529,-7.7629,-7.7722,-7.7795,-7.7806,-7.7874,-7.7854,-7.7988,-7.7884,-7.8068,-7.7967,-7.8023,-7.8046,-7.8055,-7.8068,-7.7952,-7.8139,-7.8454,-7.8488,-7.8079,-7.8076,-7.8072,0,-7.7177,-7.7354,-7.7514,-7.7558,-7.7647,-7.7721,-7.7762,-7.7829,-7.7895,-7.7981,-7.8023,-7.8124,-7.8179,-7.8256,-7.8263,-7.8187,-7.8449,-7.8345,-7.8461,-7.8461,-7.8518,-7.8515,-7.8848,-7.8553,-7.8553,-7.8552,-7.8552,0,-7.7436,-7.7577,-7.7601,-7.7699,-7.7855,-7.7855,-7.801,-7.8043,-7.8104,-7.8207,-7.8174,-7.8271,-7.8274,-7.8372,-7.8378,-7.853,-7.8554,-7.8566,-7.8566,-7.857,-7.8569,-7.8607,-7.8592,-7.8561,-7.8559,-7.8557,-7.8556,0,-7.7675,-7.7696,-7.7868,-7.7938,-7.7959,-7.8072,-7.8132,-7.8225,-7.8245,-7.8376,-7.8406,-7.8439,-7.8554,-7.8568,-7.8701,-7.8704,-7.8887,-7.887,-7.8864,-7.8861,-7.8976,-7.8965,-7.9346,-7.9396,-7.9068,-7.9071,-7.9074,0,-7.784,-7.7948,-7.8031,-7.8098,-7.8143,-7.8252,-7.8319,-7.8322,-7.8393,-7.8485,-7.8567,-7.8679,-7.8768,-7.8952,-7.8987,-7.9088,-7.9074,-7.92,-7.9089,-7.9089,-7.9076,-7.907,-7.9081,-7.9222,-7.9225,-7.9228,-7.9231,0,-7.8129,-7.8135,-7.8234,-7.8337,-7.8419,-7.8499,-7.8575,-7.8632,-7.8644,-7.8725,-7.8843,-7.8913,-7.9049,-7.916,-7.926,-7.9299,-7.9268,-7.9266,-7.9298,-7.9303,-7.9295,-7.9301,-7.8923,-7.9257,-7.9254,-7.9252,-7.9251,-7.925,-7.8337,-7.8431,-7.8504,-7.8616,-7.8673,-7.8745,-7.8836,-7.8869,-7.8968,-7.9081,-7.9076,-7.9206,-7.9276,-7.9407,-7.9454,-7.9554,-7.9512,-7.9559,-7.957,-7.9582,-7.9594,-7.9278,-7.9572,-7.9571,-7.9571,-7.957,-7.9569,0,-7.8625,-7.8671,-7.8773,-7.8881,-7.8969,-7.8933,-7.9015,-7.909,-7.9205,-7.9274,-7.9363,-7.9498,-7.9605,-7.9649,-7.9753,-7.9825,-7.9813,-7.9852,-7.9847,-7.9857,-7.9625,-7.9587,-7.9861,-7.986,-7.986,-7.986,-7.986,-7.986,-7.8786,-7.8944,-7.8958,-7.9143,-7.9187,-7.9315,-7.9365,-7.9431,-7.9486,-7.9639,-7.9729,-7.9757,-7.9815,-7.9924,-8.002,-8.003,-8.007,-8.0116,-8.012,-7.9903,-7.9873,-7.9845,-7.981,-8.0125,-8.0125,-8.0343,-8.0345,-8.0347]}]]